Regional Weather Roundup
Issued by NWS Goodland, KS

Home | Current Version | Previous Version | Graphics & Text | Print | Product List | Glossary On
Versions: 1 2 3 4 5 6 7 8 9 10 11 12 13 14 15 16 17 18 19 20 21 22 23 24 25 26 27 28 29 30 31 32 33 34 35 36 37 38 39 40 41 42 43 44 45 46 47 48 49 50
000
ASUS43 KGLD 012008
RWRGLD

GOODLAND FORECAST AREA HOURLY WEATHER ROUNDUP
NATIONAL WEATHER SERVICE GOODLAND KS
200 PM MDT FRI AUG 01 2014

...OFFICIAL OBSERVATIONS...

CITY           SKY/WX    TMP DP  RH WIND       PRES   REMARKS
GOODLAND KS    MOSUNNY   88  45  22 VRB3      30.17F
HILL CITY KS   MOSUNNY   92  49  22 NE9G20    30.10F
IMPERIAL NEB   SUNNY     89  43  20 N7        30.15F
MCCOOK NEB     SUNNY     89  50  26 E7        30.12F
AKRON CO       CLOUDY    84  44  24 VRB5      30.23F
BURLINGTON CO  PTSUNNY   84  46  26 SE8       30.20F
LIMON CO       MOSUNNY   78  40  25 E16       30.28F
$$

...UNOFFICIAL OBSERVATIONS...

CITY           SKY/WX    TMP DP  RH WIND       PRES   REMARKS
COLBY KS       PTSUNNY   88  54  31 NE3       30.15F HAZE
GOVE KS          N/A     90  32  12 MISG        N/A
LENORA KS        N/A     90  32  12 MISG        N/A
NORTON KS      SUNNY     90  46  22 NE7       30.10F
OBERLIN KS     FAIR      90  45  20 NE9       30.12S
ST FRANCIS KS  PTSUNNY   84  43  23 N5        30.15F
TRIBUNE KS     MOSUNNY   81 N/A N/A SE5       30.20F
WAKEENEY KS      N/A     94  43  16 MISG        N/A
KIT CARSON CO    N/A     82  47  29 CALM        N/A
YUMA CO          N/A     84  43  23 CALM        N/A
$$


USA.gov is the U.S. government's official web portal to all federal, state and local government web resources and services.